Regional Weather Roundup
Issued by NWS

Home | Current Version | Previous Version | Graphics & Text | Print | Product List | Glossary On
Versions: 1 2 3 4 5 6 7 8 9 10 11 12 13 14 15 16 17 18 19 20 21 22 23 24 25 26 27 28 29 30 31 32 33 34 35 36 37 38 39 40 41 42 43 44 45 46 47 48 49 50
000
ASUS43 KTOP 142159
RWRKS

WEATHER ROUNDUP FOR KANSAS
NATIONAL WEATHER SERVICE GOODLAND KS
500 PM CDT SUN SEP 14 2014

NOTE:  "FAIR" INDICATES FEW OR NO CLOUDS BELOW 12,000 FEET WITH NO
SIGNIFICANT WEATHER AND/OR OBSTRUCTIONS TO VISIBILITY.

KSZ001>006-013>018-027>032-041>047-142300-
NORTHWEST KANSAS

CITY           SKY/WX    TMP DP  RH WIND       PRES   REMARKS
GOODLAND       SUNNY     72  56  57 S10       30.01F
HAYS           MOSUNNY   82  63  51 S14       29.98F
HILL CITY      MOSUNNY   80  58  46 SE8       29.98F
RUSSELL        MOSUNNY   79  60  52 S12       29.98F
$$

KSZ061>065-074>080-084>089-142300-
SOUTHWEST KANSAS

CITY           SKY/WX    TMP DP  RH WIND       PRES   REMARKS
DODGE CITY     SUNNY     86  59  39 S26G35    29.98F
ELKHART          N/A    N/A N/A N/A MISG        N/A
GARDEN CITY    SUNNY     87  58  37 SW18      29.98F
GREAT BEND     MOSUNNY   84  61  45 S24       29.98F
LIBERAL        SUNNY     88  61  40 SW24G35   30.02S
$$

KSZ066>073-081>083-090>101-142300-
SOUTHEAST KANSAS

CITY           SKY/WX    TMP DP  RH WIND       PRES   REMARKS
CHANUTE        SUNNY     75  57  53 SE13      30.11F
COFFEYVILLE    SUNNY     76  59  55 S9        30.11F
HUTCHINSON     SUNNY     83  58  42 S22G32    30.02F
NEWTON         SUNNY     77  57  50 S17G25    30.07F
PARSONS        SUNNY     76  57  51 S7        30.12F
WICHITA INTL   MOSUNNY   84  58  40 S25G31    30.04F
WICHITA JABRA  SUNNY     79  58  48 S18G26    30.05F
WINFIELD       MOSUNNY   79  61  53 S18G24    30.09F
$$

KSZ007>012-019>026-033>040-048>060-102>105-142300-
NORTHEAST KANSAS

CITY           SKY/WX    TMP DP  RH WIND       PRES   REMARKS
CONCORDIA      PTSUNNY   71  56  58 S9        30.05S
EMPORIA        SUNNY     73  57  57 SE14      30.09F
LAWRENCE       MOSUNNY   72  54  53 S13       30.11F
MANHATTAN      MOSUNNY   74  55  51 S13G21    30.06F
OLATHE IND     MOSUNNY   72  56  57 S14       30.13F
OLATHE EXE     MOSUNNY   70  55  59 S10       30.12F
SALINA         MOSUNNY   78  58  49 S13       30.04F
TOPEKA BILLARD CLOUDY    74  54  49 S14       30.09F
TOPEKA FORBES  CLOUDY    72  54  53 S12       30.10F
$$



USA.gov is the U.S. government's official web portal to all federal, state and local government web resources and services.